Location: ??????????
(54.4061°N, 22.6114°E)
Time: 03:30:23
(UTC+00:00)

Cosmos 1812 Rocket - Pass Details

Date: 23 October 2019
Orbit: 606 x 632 km, 82.5° (Epoch: 13 November)

Event Time Altitude Azimuth Distance (km) Brightness Sun altitude
Rises 16:27:13 0° 169° (S) 2,902 6.9 -11.2°
Reaches altitude 10° 16:29:30 10° 163° (SSE) 2,004 6.0 -11.6°
Maximum altitude 16:33:41 42° 93° (E) 908 3.9 -12.2°
Drops below altitude 10° 16:37:55 10° 23° (NNE) 2,027 6.0 -12.8°
Sets 16:40:15 0° 16° (NNE) 2,941 6.9 -13.1°
